| time (UTC) | temp C | wind direction | speed KPH | gust KPH | rain 1hr cm | rain 24hr cm | rain mn cm | humidity % | barometer mb |
| 20260507194359 | 15 | 0.0 | 0.0 | 0.00 | 0.00 | 0.00 | 47 | 994.7 | |
| 20260507194353 | 15 | 0.0 | 0.0 | 0.00 | 0.00 | 0.00 | 47 | 994.8 | |
| 20260507143506 | 30 | 0.0 | 0.0 | 0.00 | 0.00 | 0.00 | 30 | 991.8 | |
| 20260507143434 | 30 | 0.0 | 0.0 | 0.00 | 0.00 | 0.00 | 30 | 991.7 | |
| 20260507143428 | 30 | 0.0 | 0.0 | 0.00 | 0.00 | 0.00 | 30 | 991.8 | |
| 20260507143420 | 30 | 0.0 | 0.0 | 0.00 | 0.00 | 0.00 | 30 | 991.6 | |
| 20260507143413 | 30 | 0.0 | 0.0 | 0.00 | 0.00 | 0.00 | 30 | 991.3 | |
| 20260507143025 | 30 | 0.0 | 0.0 | 0.00 | 0.00 | 0.00 | 29 | 991.8 | |
| 20260507143009 | 30 | 0.0 | 0.0 | 0.00 | 0.00 | 0.00 | 29 | 991.9 | |
| 20260507143003 | 30 | 0.0 | 0.0 | 0.00 | 0.00 | 0.00 | 29 | 991.9 | |
| 20260507142950 | 30 | 0.0 | 0.0 | 0.00 | 0.00 | 0.00 | 29 | 991.8 | |
| 20260507142431 | 30 | 0.0 | 0.0 | 0.00 | 0.00 | 0.00 | 29 | 991.9 | |
| 20260507142418 | 30 | 0.0 | 0.0 | 0.00 | 0.00 | 0.00 | 29 | 991.7 | |
| 20260507142405 | 30 | 0.0 | 0.0 | 0.00 | 0.00 | 0.00 | 29 | 991.8 | |
| 20260507142339 | 30 | 0.0 | 0.0 | 0.00 | 0.00 | 0.00 | 29 | 991.8 | |
| 20260507142332 | 30 | 0.0 | 0.0 | 0.00 | 0.00 | 0.00 | 30 | 991.9 | |
| 20260507142326 | 30 | 0.0 | 0.0 | 0.00 | 0.00 | 0.00 | 30 | 992.0 | |
| 20260507142319 | 30 | 0.0 | 0.0 | 0.00 | 0.00 | 0.00 | 29 | 991.9 | |
| 20260507142307 | 30 | 0.0 | 0.0 | 0.00 | 0.00 | 0.00 | 29 | 991.7 | |
| 20260507142300 | 30 | 0.0 | 0.0 | 0.00 | 0.00 | 0.00 | 30 | 991.6 | |
| 20260507141852 | 31 | 0.0 | 0.0 | 0.00 | 0.00 | 0.00 | 27 | 991.9 | |
| 20260507141846 | 31 | 0.0 | 0.0 | 0.00 | 0.00 | 0.00 | 27 | 991.8 | |
| 20260507141839 | 31 | 0.0 | 0.0 | 0.00 | 0.00 | 0.00 | 28 | 991.6 | |
| 20260507141819 | 31 | 0.0 | 0.0 | 0.00 | 0.00 | 0.00 | 27 | 991.4 | |
| 20260507141812 | 31 | 0.0 | 0.0 | 0.00 | 0.00 | 0.00 | 27 | 991.6 | |
| 20260507141806 | 31 | 0.0 | 0.0 | 0.00 | 0.00 | 0.00 | 28 | 991.7 | |
| 20260507141753 | 31 | 0.0 | 0.0 | 0.00 | 0.00 | 0.00 | 28 | 991.7 | |
| 20260507141746 | 30 | 0.0 | 0.0 | 0.00 | 0.00 | 0.00 | 28 | 991.7 | |
| 20260507141740 | 30 | 0.0 | 0.0 | 0.00 | 0.00 | 0.00 | 28 | 991.8 | |
| 20260507141720 | 30 | 0.0 | 0.0 | 0.00 | 0.00 | 0.00 | 29 | 992.0 | |
| 20260507141714 | 30 | 0.0 | 0.0 | 0.00 | 0.00 | 0.00 | 28 | 992.0 | |
| 20260507141707 | 30 | 0.0 | 0.0 | 0.00 | 0.00 | 0.00 | 28 | 991.9 | |
| 20260507141701 | 30 | 0.0 | 0.0 | 0.00 | 0.00 | 0.00 | 29 | 991.5 | |
| 20260507141648 | 30 | 0.0 | 0.0 | 0.00 | 0.00 | 0.00 | 29 | 991.8 | |
| 20260507141641 | 30 | 0.0 | 0.0 | 0.00 | 0.00 | 0.00 | 29 | 991.9 | |
| 20260507141628 | 30 | 0.0 | 0.0 | 0.00 | 0.00 | 0.00 | 29 | 991.8 | |
| 20260507141615 | 30 | 0.0 | 0.0 | 0.00 | 0.00 | 0.00 | 29 | 991.7 | |
| 20260507141609 | 30 | 0.0 | 0.0 | 0.00 | 0.00 | 0.00 | 29 | 991.6 | |
| 20260507141556 | 30 | 0.0 | 0.0 | 0.00 | 0.00 | 0.00 | 29 | 991.7 | |
| 20260507141549 | 30 | 0.0 | 0.0 | 0.00 | 0.00 | 0.00 | 29 | 991.6 | |
| 20260507131311 | 32 | 0.0 | 0.0 | 0.00 | 0.00 | 0.00 | 43 | 994.1 | |
| 20260507131212 | 32 | 0.0 | 0.0 | 0.00 | 0.00 | 0.00 | 43 | 994.1 | |
| 20260507131206 | 32 | 0.0 | 0.0 | 0.00 | 0.00 | 0.00 | 43 | 994.2 | |
| 20260507131159 | 31 | 0.0 | 0.0 | 0.00 | 0.00 | 0.00 | 44 | 994.2 | |
| 20260507131153 | 31 | 0.0 | 0.0 | 0.00 | 0.00 | 0.00 | 44 | 994.3 | |
| 20260507131124 | 31 | 0.0 | 0.0 | 0.00 | 0.00 | 0.00 | 44 | 994.4 | |
| 20260507131107 | 31 | 0.0 | 0.0 | 0.00 | 0.00 | 0.00 | 45 | 994.3 | |
| 20260507131100 | 31 | 0.0 | 0.0 | 0.00 | 0.00 | 0.00 | 45 | 994.4 | |
| 20260507131047 | 31 | 0.0 | 0.0 | 0.00 | 0.00 | 0.00 | 45 | 994.3 | |
| 20260507131026 | 31 | 0.0 | 0.0 | 0.00 | 0.00 | 0.00 | 45 | 994.4 | |
| 20260507131007 | 31 | 0.0 | 0.0 | 0.00 | 0.00 | 0.00 | 46 | 994.4 | |
| 20260507130948 | 30 | 0.0 | 0.0 | 0.00 | 0.00 | 0.00 | 46 | 994.4 | |
| 20260507130941 | 30 | 0.0 | 0.0 | 0.00 | 0.00 | 0.00 | 46 | 994.2 | |
| 20260507130928 | 30 | 0.0 | 0.0 | 0.00 | 0.00 | 0.00 | 46 | 994.1 | |
| 20260507130915 | 30 | 0.0 | 0.0 | 0.00 | 0.00 | 0.00 | 47 | 994.1 | |
| 20260507130903 | 30 | 0.0 | 0.0 | 0.00 | 0.00 | 0.00 | 47 | 994.1 | |
| 20260507130810 | 29 | 0.0 | 0.0 | 0.00 | 0.00 | 0.00 | 48 | 994.0 |